x

8461490 - New London, Ct (nlnc3) Weather Station

2:30 - Sun 4th Dec 2016 All times are EST. -5 hours from GMT.

  • Wind
    3mph, 6mph gusts
  • Sea Temp 52°f
  • Luft Temp 35°f
  • Sea Pressure 1021mb
  • 8461490 - New London, Ct
  • 8461490 - New London, Ct

More Historic Weather Station data

Upgrade to MSW Pro to gain access to the past 30 days of data for over 8000 Wavebouys and Weather Stations around the globe.

Join Pro

Comparision Forecast

View Surf forecast
   
So 12/04 2:30 3 6 mph 1021mb 52f 35f
2:24 3 5 mph 1021.1mb 52f 35f
2:18 2 5 mph 1021.1mb 52f 35f
2:12 3 5 mph 1021.1mb 52f 35f
2:06  -  2 mph 1021mb 52f 35f
2:00 1 5 mph 1020.9mb 52f 35f
1:54 3 5 mph 1020.8mb 52f 35f
1:48 2 3 mph 1020.9mb 52f 35f
1:42 1 5 mph 1021mb 52f 35f
1:36 5 6 mph 1020.8mb 52f 35f
1:30 5 6 mph 1020.7mb 52f 35f
1:24 2 6 mph 1020.7mb 52f 35f
1:18 3 6 mph 1020.5mb 52f 35f
1:12 5
mph
1020.4mb 52f 35f
1:06 2 3 mph 1020.2mb 52f 35f
1:00  -  3 mph 1020.3mb 52f 36f
12:54 3 6 mph 1020.3mb 52f 36f
12:48 2 3 mph 1020.3mb 53f 36f
12:42 3 5 mph 1020.2mb 52f 36f
12:36 1 6 mph 1019.9mb 52f 36f
12:30 3 6 mph 1019.8mb 52f 37f
12:24 5 7 mph 1019.8mb 52f 37f
12:18 3 6 mph 1019.7mb 52f 37f
12:12 6 10 mph 1019.6mb 52f 38f
12:06 5 9 mph 1019.6mb 52f 38f
12:00 5 8 mph 1019.7mb 52f 38f
Sa 12/03 11:54 7 9 mph 1019.7mb 52f 38f
11:48 3 9 mph 1019.7mb 53f 38f
11:42 7 10 mph 1019.7mb 52f 38f
11:36 6 9 mph 1019.5mb 52f 38f
11:30 5 7 mph 1019.3mb 52f 38f
11:24 2 7 mph 1019.3mb 52f 38f
11:18 5 7 mph 1019.3mb 52f 38f
11:12 5 9 mph 1019.4mb 52f 38f
11:06 6 14 mph 1019.4mb 52f 39f
11:00 6 10 mph 1019.2mb 52f 39f
10:54 6 9 mph 1019mb 52f 39f
10:48 2 6 mph 1018.9mb 52f 39f
10:42 5 10 mph 1018.8mb 52f 39f
10:36 5 8 mph 1018.6mb 52f 39f
10:30 3 7 mph 1018.7mb 52f 39f
10:24 5 7 mph 1018.7mb 52f 39f
10:18 3 9 mph 1018.5mb 53f 39f
10:12 3 7 mph 1018.3mb 53f 38f
10:06 3 8 mph 1018.3mb 53f 38f
10:00 5 8 mph 1018.3mb 53f 38f
9:54 1 6 mph 1018.3mb 53f 38f
9:48 3 8 mph 1018.2mb 53f 38f
9:42 2 8 mph 1018.1mb 53f 39f
9:36 3 8 mph 1018mb 53f 39f
9:30 3 9 mph 1017.9mb 53f 39f
9:24 3 9 mph 1017.7mb 53f 39f
9:18 6 10 mph 1017.6mb 53f 39f
9:12 7 11 mph 1017.4mb 53f 39f
9:06 6 8 mph 1017.7mb 53f 39f
9:00 3 8 mph 1017.7mb 53f 39f
8:54 6 10 mph 1017.6mb 53f 39f
8:48 5 10 mph 1017.6mb 53f 40f
8:42 5 10 mph 1017.7mb 52f 40f
8:36 5 9 mph 1017.7mb 53f 40f
8:30 7 15 mph 1017.6mb 53f 40f
8:24 6 15 mph 1017.6mb 52f 40f
8:18 6 11 mph 1017.7mb 51f 40f
8:12 6 10 mph 1017.7mb 51f 40f
8:06 3 10 mph 1017.9mb 51f 40f
8:00 7 13 mph 1017.8mb 51f 40f
7:54 5 11 mph 1017.8mb 51f 40f
7:48 6 14 mph 1017.8mb 51f 40f
7:42 7 10 mph 1017.8mb 50f 40f
7:36 5 14 mph 1017.8mb 50f 40f
7:30 3 15 mph 1017.8mb 50f 40f
7:24 6 13 mph 1017.8mb 50f 40f
7:18 6 13 mph 1017.7mb 50f 40f
7:12 6 11 mph 1017.8mb 51f 40f
7:06 6 10 mph 1017.8mb 51f 40f
7:00 6 16 mph 1017.7mb 51f 40f
6:54 6 14 mph 1017.7mb 51f 40f
6:48 6 13 mph 1017.6mb 51f 40f
6:42 6 16 mph 1017.6mb 51f 40f
6:36 7 15 mph 1017.4mb 51f 40f
6:30 5 10 mph 1017.4mb 51f 40f
6:24 1 9 mph 1017.3mb 51f 40f
6:18 9 18 mph 1017mb 51f 41f
6:12 6 13 mph 1017mb 51f 41f
6:06 7 16 mph 1017mb 51f 41f
6:00 8 14 mph 1017.1mb 50f 41f
5:54 6 16 mph 1017.3mb 50f 42f
5:48 8 16 mph 1017.2mb 51f 42f
5:42 9 15 mph 1017.1mb 50f 42f
5:36 7 16 mph 1017mb 51f 42f
5:30 8 15 mph 1016.9mb 50f 42f
5:24 8 14 mph 1016.8mb 50f 42f
5:18 6 18 mph 1016.7mb 51f 42f
5:12 5 16 mph 1016.6mb 51f 42f
5:06 7 9 mph 1016.5mb 50f 42f
5:00 6 15 mph 1016.4mb 50f 42f
4:54 7 13 mph 1016.2mb 51f 42f
4:48 7 17 mph 1016.2mb 51f 42f
4:42 6 11 mph 1016mb 51f 42f
4:36 6 9 mph 1015.8mb 51f 42f
4:30 6 14 mph 1015.6mb 51f 42f
4:24 7 14 mph 1015.6mb 50f 42f
4:18 6 22 mph 1015.4mb 50f 42f
4:12 7 16 mph 1015.2mb 50f 43f
4:06 7 16 mph 1015.1mb 50f 43f
4:00 8 15 mph 1015mb 50f 43f
3:54 6 16 mph 1015mb 50f 44f
3:48 7 15 mph 1015mb 50f 44f
3:42 6 14 mph 1014.9mb 51f 44f
3:36 9 18 mph 1014.7mb 50f 43f
3:30 10 21 mph 1014.6mb 51f 44f
3:24 8 17 mph 1014.4mb 51f 44f
3:18 7 14 mph 1014.3mb 51f 44f
3:12 7 14 mph 1014.2mb 51f 45f
3:06 7 18 mph 1014.1mb 51f 45f
3:00 9 21 mph 1014.1mb 51f 45f
2:54 8 20 mph 1014mb 51f 46f
2:48 10 21 mph 1013.9mb 51f 46f
2:42 8 20 mph 1014mb 51f 45f
2:36 6 21 mph 1013.8mb 51f 45f
2:30 8 14 mph 1013.7mb 51f 44f
2:24 6 17 mph 1013.7mb 52f 45f
2:18 9 16 mph 1013.6mb 52f 45f
2:12 7 14 mph 1013.5mb 52f 46f
2:06 8 15 mph 1013.4mb 52f 45f
2:00 8 15 mph 1013.4mb 52f 45f
1:54 8 16 mph 1013.4mb 52f 45f
1:48 8 17 mph 1013.4mb 53f 45f
1:42 7 14 mph 1013.5mb 53f 45f
1:36 9 14 mph 1013.6mb 52f 46f
1:30 7 20 mph 1013.5mb 52f 46f
1:24 13 20 mph 1013.3mb 52f 46f
1:18 7 21 mph 1013.3mb 52f 46f
1:12 10 20 mph 1013.2mb 53f 46f
1:06 8 22 mph 1013.3mb 53f 47f
1:00 8 21 mph 1013.3mb 53f 46f
12:54 10 16 mph 1013.2mb 53f 47f
12:48 9 15 mph 1013.1mb 53f 47f
12:42 9 18 mph 1013mb 53f 47f
12:36 9 18 mph 1013mb 53f 47f
12:30 7 16 mph 1013mb 53f 47f
12:24 8 18 mph 1012.9mb 53f 47f
12:18 9 20 mph 1012.9mb 53f 46f
12:12 8 15 mph 1013mb 53f 47f
12:06 8 21 mph 1013mb 52f 46f
12:00 13 20 mph 1012.9mb 53f 45f
11:54 9 17 mph 1012.9mb 53f 46f
11:48 9 17 mph 1013mb 53f 46f
11:42 11 18 mph 1013.1mb 53f 46f
11:36 10 18 mph 1013.1mb 53f 46f
11:30 10 16 mph 1013.1mb 53f 45f
11:24 9 21 mph 1013.1mb 53f 46f
11:18 10 17 mph 1013mb 53f 46f
11:12 11 18 mph 1013.1mb 53f 45f
11:06 11 17 mph 1013mb 53f 45f
11:00 6 15 mph 1013mb 53f 46f
10:54 7 14 mph 1013.1mb 53f 46f
10:48 7 15 mph 1013.1mb 53f 46f
10:42 6 13 mph 1013.2mb 53f 46f
10:36 6 11 mph 1013.2mb 53f 46f
10:30 8 15 mph 1013.1mb 53f 46f
10:24 6 14 mph 1013.2mb 53f 46f
10:18 8 14 mph 1013.2mb 53f 45f
10:12 7 11 mph 1013.3mb 53f 45f
10:06 5 14 mph 1013.4mb 53f 45f
10:00 7 11 mph 1013.5mb 52f 44f
9:54 6 14 mph 1013.5mb 53f 44f
9:48 7 16 mph 1013.4mb 53f 44f
9:42 10 20 mph 1013.4mb 53f 44f
9:36 10 20 mph 1013.3mb 53f 43f
9:30 6 15 mph 1013.3mb 53f 44f
9:24 7 20 mph 1013.3mb 53f 43f
9:18 6 21 mph 1013.3mb 53f 44f
9:12 6 13 mph 1013.3mb 52f 43f
9:06 5 15 mph 1013.2mb 53f 43f
9:00 3 13 mph 1013.1mb 53f 43f
8:54 7 18 mph 1013mb 53f 42f
8:48 6 14 mph 1012.9mb 53f 42f
8:42 8 18 mph 1013mb 53f 42f
8:36 11 18 mph 1012.7mb 53f 42f
8:30 7 14 mph 1012.5mb 53f 42f
8:24 6 13 mph 1012.7mb 53f 42f
8:18 3 14 mph 1012.5mb 53f 42f
8:12 9 16 mph 1012.5mb 53f 42f
8:06 10 16 mph 1012.4mb 53f 42f
8:00 6 11 mph 1012.4mb 53f 42f
7:48 13 21 mph 1012mb 53f 41f
7:42 7 13 mph 1012.1mb 53f 41f
7:36 8 15 mph 1012mb 53f 41f
7:30 5 13 mph 1011.9mb 53f 41f
7:24 5 15 mph 1011.8mb 53f 40f
7:18 8 15 mph 1011.7mb 53f 40f
7:12 8 18 mph 1011.7mb 53f 40f
7:06 6 10 mph 1011.7mb 52f 40f
7:00 7 16 mph 1011.6mb 52f 40f
6:54 6 13 mph 1011.5mb 52f 40f
6:48 6 17 mph 1011.5mb 51f 40f
6:42 9 14 mph 1011.4mb 51f 40f
6:36 7 15 mph 1011.5mb 51f 40f
6:30 6 10 mph 1011.4mb 51f 40f
6:24 6 18 mph 1011.3mb 51f 40f
6:18 8 13 mph 1011.3mb 51f 40f
6:12 6 14 mph 1011.2mb 51f 40f
6:06 5 11 mph 1011.1mb 51f 40f
6:00 7 18 mph 1011mb 51f 40f
5:54 7 15 mph 1011mb 51f 40f
5:48 6 13 mph 1010.9mb 51f 40f
5:42 5 11 mph 1010.8mb 51f 40f
5:36 9 17 mph 1010.8mb 51f 41f
5:30 6 14 mph 1010.8mb 51f 40f
5:24 6 11 mph 1010.8mb 51f 40f
5:18 6 15 mph 1010.7mb 51f 41f
5:12 6 13 mph 1010.6mb 51f 41f
5:06 6 9 mph 1010.6mb 52f 41f
5:00 6 18 mph 1010.6mb 52f 41f
4:54 8 18 mph 1010.7mb 52f 41f
4:48 10 20 mph 1010.7mb 52f 41f
4:42 8 14 mph 1010.6mb 52f 41f
4:36 6 17 mph 1010.7mb 52f 41f
4:30 6 17 mph 1010.7mb 52f 41f
4:24 6 14 mph 1010.6mb 52f 41f
4:18 5 13 mph 1010.6mb 52f 41f
4:12 5 8 mph 1010.6mb 52f 41f
4:06 7 15 mph 1010.5mb 52f 42f
4:00 6 10 mph 1010.5mb 52f 41f
3:54 7 15 mph 1010.4mb 52f 41f
3:48 5 7 mph 1010.5mb 52f 41f
3:42 5 10 mph 1010.5mb 52f 41f
3:36 7 11 mph 1010.4mb 52f 41f
3:30 7 13 mph 1010.2mb 52f 41f
3:24 5 9 mph 1010.3mb 52f 41f
3:18 3 8 mph 1010.3mb 52f 42f
3:12 3 11 mph 1010.3mb 52f 42f
3:06 9 13 mph 1010mb 52f 42f
3:00 7 10 mph 1010.1mb 52f 42f
2:54 5 11 mph 1010.2mb 52f 42f
2:48 6 9 mph 1010.3mb 52f 42f
2:42 5 11 mph 1010.2mb 52f 42f
2:36 6 11 mph 1010.1mb 53f 42f
2:30 8 14 mph 1010mb 53f 42f
2:24 7 14 mph 1010.2mb 53f 42f
2:18 6 11 mph 1010.1mb 53f 42f
2:12 9 15 mph 1009.9mb 53f 42f
2:06 8 15 mph 1009.8mb 53f 42f
2:00 6 10 mph 1009.9mb 53f 42f
1:54 9 14 mph 1009.8mb 53f 42f
1:48 8 14 mph 1009.7mb 53f 42f
1:42 8 11 mph 1009.7mb 53f 42f
1:36 7 14 mph 1009.7mb 52f 42f
1:30 7 14 mph 1009.6mb 52f 42f
1:24 9 14 mph 1009.6mb 53f 42f
1:18 6 11 mph 1009.5mb 53f 42f
1:12 7 10 mph 1009.6mb 53f 42f
1:06 3 13 mph 1009.6mb 53f 41f
1:00 7 11 mph 1009.6mb 53f 42f
12:54 10 15 mph 1009.5mb 53f 42f
12:48 8 14 mph 1009.5mb 53f 42f
12:42 9 14 mph 1009.4mb 53f 42f
12:36 6 11 mph 1009.4mb 53f 42f
12:30 7 10 mph 1009.4mb 53f 42f
12:24 7 14 mph 1009.4mb 53f 42f
12:18 7 14 mph 1009.4mb 53f 42f
12:12 8 10 mph 1009.4mb 53f 42f
12:06 3 13 mph 1009.4mb 53f 42f
12:00 8 11 mph 1009.4mb 53f 42f
Fr 12/02 11:54 5 13 mph 1009.5mb 53f 42f
11:48 7 10 mph 1009.5mb 53f 42f
11:42 5 9 mph 1009.6mb 53f 41f
11:36 5 15 mph 1009.6mb 53f 42f
11:30 5 10 mph 1009.5mb 53f 42f
11:24 5 11 mph 1009.4mb 53f 42f
11:18 6 10 mph 1009.4mb 53f 42f
11:12 9 14 mph 1009.5mb 53f 42f
11:06 1 8 mph 1009.5mb 53f 42f
11:00 5 9 mph 1009.5mb 53f 42f
10:54 5 8 mph 1009.5mb 53f 42f
10:48 7 10 mph 1009.5mb 53f 42f
10:42 8 14 mph 1009.6mb 53f 42f
10:36 6 11 mph 1009.5mb 53f 42f
10:30 5 8 mph 1009.5mb 53f 42f
10:24 3 9 mph 1009.5mb 53f 42f
10:18 3 8 mph 1009.5mb 53f 42f
10:12 5 8 mph 1009.5mb 53f 42f
10:06 5 7 mph 1009.5mb 53f 42f
10:00 3 8 mph 1009.4mb 53f 42f
9:54 3 7 mph 1009.4mb 53f 42f
9:48 6 9 mph 1009.4mb 53f 42f
9:42 5 8 mph 1009.3mb 53f 42f
9:36 5 9 mph 1009.4mb 53f 43f
9:30 5 8 mph 1009.4mb 53f 43f
9:24 5 7 mph 1009.3mb 53f 43f
9:18 6 9 mph 1009.2mb 53f 43f
9:12 6 10 mph 1009.2mb 52f 43f
9:06 7 9 mph 1009.2mb 52f 43f
9:00 6 10 mph 1009.2mb 52f 43f
8:54 3 8 mph 1009.3mb 52f 43f
8:48 6 10 mph 1009.3mb 52f 44f
8:42 6 15 mph 1009.3mb 52f 44f
8:36 6 8 mph 1009.4mb 52f 44f
8:30 5 10 mph 1009.5mb 52f 44f
8:24 7 15 mph 1009.5mb 52f 44f
8:18 8 11 mph 1009.4mb 52f 45f
8:12 7 11 mph 1009.5mb 52f 45f
8:06 10 14 mph 1009.6mb 53f 45f
8:00 9 15 mph 1009.6mb 53f 45f
7:54 9 16 mph 1009.7mb 53f 45f
7:48 9 17 mph 1009.6mb 53f 46f
7:42 10 16 mph 1009.6mb 53f 46f
7:36 7 11 mph 1009.6mb 53f 46f
7:30 10 20 mph 1009.7mb 53f 46f
7:24 11 17 mph 1009.8mb 53f 46f
7:18 8 14 mph 1009.8mb 53f 46f
7:12 9 16 mph 1009.9mb 53f 46f
7:06 5 13 mph 1009.9mb 53f 46f
7:00 3 8 mph 1009.8mb 53f 47f
6:54 7 10 mph 1009.6mb 53f 47f
6:48 7 10 mph 1009.6mb 52f 47f
6:30 5 8 mph 1009.5mb 52f 47f
6:24 6 8 mph 1009.5mb 52f 47f
6:18 7 11 mph 1009.5mb 53f 48f
6:12 7 11 mph 1009.4mb 52f 48f
6:06 7 10 mph 1009.4mb 52f 48f
6:00 9 14 mph 1009.3mb 52f 48f
5:54 6 15 mph 1009.3mb 52f 48f
5:48 9 16 mph 1009.4mb 52f 48f
4:54 6 8 mph 1009.2mb 52f 49f
4:48 9 14 mph 1009.1mb 52f 49f
4:18 6 7 mph 1009mb 53f 49f
4:12 6 11 mph 1009mb 52f 50f
4:06 8 11 mph 1008.9mb 52f 50f
4:00 6 14 mph 1008.9mb 53f 50f
3:54 7 10 mph 1008.8mb 53f 50f
3:48 5 8 mph 1008.8mb 53f 50f
3:42 6 10 mph 1008.8mb 53f 50f
3:36 7 11 mph 1008.8mb 53f 50f
3:30 5 8 mph 1008.8mb 52f 50f
3:24 6 11 mph 1008.7mb 53f 50f
3:18 8 11 mph 1008.6mb 53f 50f
3:12 8 11 mph 1008.7mb 53f 50f
3:06 6 9 mph 1008.7mb 53f 50f
3:00 5 8 mph 1008.7mb 53f 50f
2:54 2 9 mph 1008.6mb 53f 50f
2:48 3 7 mph 1008.6mb 53f 50f
2:42 6 11 mph 1008.6mb 52f 50f
2:36 5 15 mph 1008.6mb 53f 50f
2:30 7 11 mph 1008.5mb 53f 50f
2:24 10 14 mph 1008.5mb 52f 50f
2:18 7 14 mph 1008.5mb 53f 50f
2:12 6 20 mph 1008.5mb 53f 50f
2:06 8 11 mph 1008.5mb 53f 50f
2:00 7 15 mph 1008.5mb 53f 50f
1:54 5 10 mph 1008.4mb 53f 51f
1:48 5 14 mph 1008.4mb 53f 51f
1:42 8 14 mph 1008.5mb 53f 51f
1:36 5 15 mph 1008.5mb 53f 52f
1:30 8 14 mph 1008.5mb 53f 50f
1:24 3 9 mph 1008.6mb 53f 51f
1:18 6 11 mph 1008.7mb 53f 50f
1:12 3 9 mph 1008.8mb 53f 51f
1:06 5 10 mph 1008.8mb 53f 50f
1:00 8 13 mph 1008.9mb 53f 49f
12:54 3 10 mph 1009mb 53f 49f
12:48 6 10 mph 1009.1mb 53f 49f
12:42 5 10 mph 1009.1mb 53f 49f
12:36 7 13 mph 1009.2mb 53f 49f
12:30 7 11 mph 1009.3mb 53f 49f
12:24 6 11 mph 1009.4mb 53f 50f
12:18 7 13 mph 1009.4mb 53f 50f
12:12 9 15 mph 1009.4mb 53f 50f
12:06 8 14 mph 1009.5mb 53f 49f
12:00 7 11 mph 1009.5mb 53f 50f
11:54 7 13 mph 1009.5mb 53f 50f
11:48 8 11 mph 1009.5mb 53f 49f
11:42 5 10 mph 1009.6mb 53f 49f
11:36 6 15 mph 1009.6mb 53f 48f
11:30 6 10 mph 1009.6mb 53f 49f
11:24 6 8 mph 1009.8mb 53f 49f
11:18 6 10 mph 1009.8mb 53f 48f
11:12 5 9 mph 1009.9mb 53f 49f
11:06 7 14 mph 1010.1mb 53f 49f
11:00 6 15 mph 1010.1mb 53f 48f
10:54 8 11 mph 1010.2mb 53f 48f
10:48 8 11 mph 1010.2mb 53f 47f
10:42 10 16 mph 1010.4mb 53f 47f
10:36 8 16 mph 1010.5mb 53f 47f
10:30 9 14 mph 1010.6mb 53f 47f
10:24 7 16 mph 1010.6mb 53f 47f
10:18 9 14 mph 1010.7mb 53f 46f
10:12 7 14 mph 1010.7mb 53f 47f
10:06 7 13 mph 1010.8mb 53f 47f
10:00 8 18 mph 1010.9mb 53f 46f
9:54 9 14 mph 1010.8mb 53f 46f
9:48 8 11 mph 1010.8mb 53f 46f
9:42 8 14 mph 1010.8mb 53f 45f
9:36 8 11 mph 1010.8mb 53f 45f
9:30 9 16 mph 1010.8mb 53f 45f
9:24 6 14 mph 1010.7mb 53f 45f
9:18 7 11 mph 1010.6mb 53f 44f
9:12 8 16 mph 1010.5mb 53f 44f
9:06 10 18 mph 1010.5mb 53f 43f
9:00 9 17 mph 1010.6mb 53f 43f
8:54 6 14 mph 1010.6mb 53f 43f
8:48 9 14 mph 1010.5mb 53f 43f
8:42 6 9 mph 1010.5mb 53f 42f
8:36 6 10 mph 1010.5mb 53f 42f
8:30 6 9 mph 1010.6mb 53f 41f
8:18 5 8 mph 1010.6mb 53f 40f
8:12 6 9 mph 1010.7mb 53f 40f
8:06 3 7 mph 1010.7mb 53f 40f
8:00 5 7 mph 1010.7mb 53f 39f
7:54 5 7 mph 1010.6mb 53f 39f
7:48 2 6 mph 1010.6mb 53f 39f
7:42 3 7 mph 1010.6mb 53f 39f
7:36 5 7 mph 1010.5mb 53f 38f
7:30 3 7 mph 1010.4mb 53f 39f
7:24 3 5 mph 1010.3mb 53f 38f
7:18 3 7 mph 1010.3mb 53f 38f
7:12 3 5 mph 1010.3mb 53f 38f
7:06 2 6 mph 1010.2mb 53f 38f
7:00 3 7 mph 1010.2mb 53f 38f
6:54 5 7 mph 1010.1mb 53f 38f
6:48 5 6 mph 1010mb 53f 38f
6:42 3 6 mph 1010mb 53f 38f
6:36 3 6 mph 1010mb 53f 38f
6:30 3 6 mph 1010mb 53f 38f
6:24 5 7 mph 1009.9mb 53f 39f
6:18 3 6 mph 1009.9mb 53f 39f
6:12 5 7 mph 1010mb 53f 39f
6:06 3 6 mph 1009.9mb 53f 39f
6:00 3 6 mph 1009.8mb 53f 39f
5:54 1 3 mph 1009.8mb 53f 39f
5:48 1 5 mph 1009.8mb 53f 39f
5:42 2 3 mph 1009.8mb 53f 39f
5:36 1 3 mph 1009.8mb 53f 39f
5:30 2 6 mph 1009.8mb 53f 39f
5:24 1 7 mph 1009.7mb 53f 39f
5:18 2 7 mph 1009.7mb 53f 39f
5:12 3 7 mph 1009.6mb 53f 39f
5:06 3 7 mph 1009.6mb 52f 39f
5:00 3 7 mph 1009.5mb 53f 39f
4:54 2 7 mph 1009.5mb 52f 39f
4:48 3 7 mph 1009.4mb 52f 39f
4:42 5 8 mph 1009.4mb 52f 40f
4:36 5 9 mph 1009.4mb 52f 40f
4:30 3 7 mph 1009.3mb 52f 40f
4:24 3 7 mph 1009.4mb 53f 40f
4:18 3 10 mph 1009.4mb 52f 40f
4:12 6 10 mph 1009.4mb 52f 40f
4:06 7 11 mph 1009.3mb 52f 41f
4:00 7 11 mph 1009.3mb 52f 41f
3:54 5 9 mph 1009.3mb 53f 41f
3:48 6 11 mph 1009.2mb 53f 41f
3:42 6 9 mph 1009.2mb 53f 41f
3:36 3 10 mph 1009.2mb 52f 41f
3:30 5 11 mph 1009.1mb 52f 41f
3:24 7 13 mph 1009.1mb 53f 41f
3:18 7 10 mph 1009.1mb 53f 42f
3:12 3 7 mph 1009.1mb 53f 41f
3:06 5 8 mph 1009.1mb 53f 41f
3:00 5 9 mph 1009.1mb 53f 42f
2:54 5 10 mph 1009.1mb 53f 41f
2:48 5 8 mph 1009mb 53f 41f
2:42 6 11 mph 1009mb 53f 42f
2:36 6 10 mph 1009mb 53f 42f
2:30 5 8 mph 1009.2mb 53f 42f
2:24 7 9 mph 1009.1mb 53f 42f
2:18 6 11 mph 1008.9mb 53f 41f
2:12 5 11 mph 1008.8mb 53f 41f
2:06 5 8 mph 1008.8mb 53f 41f
2:00 5 8 mph 1008.8mb 53f 41f
1:54 6 8 mph 1008.8mb 53f 41f
1:48 3 6 mph 1008.8mb 53f 41f
1:42 5 8 mph 1008.8mb 53f 41f
1:36 5 10 mph 1008.6mb 52f 41f
1:30 5 8 mph 1008.5mb 53f 41f
1:24 6 9 mph 1008.4mb 53f 41f
1:18 6 8 mph 1008.3mb 53f 41f
1:12 3 7 mph 1008.3mb 53f 41f
1:06 2 7 mph 1008.2mb 53f 41f
1:00 2 5 mph 1008.1mb 53f 41f
12:54 2 8 mph 1008mb 53f 41f
12:48 3 6 mph 1008mb 53f 42f
12:42 3 6 mph 1007.9mb 53f 42f
12:36 2 7 mph 1007.9mb 53f 42f
12:30 2 8 mph 1007.8mb 53f 42f
12:24 3 7 mph 1007.6mb 53f 42f
12:18 3 6 mph 1007.6mb 53f 42f
12:12 3 7 mph 1007.6mb 53f 42f
12:06 3 7 mph 1007.5mb 53f 42f
12:00 3 8 mph 1007.5mb 53f 42f
Do 12/01 11:54 5 7 mph 1007.5mb 53f 42f
11:48 2 5 mph 1007.5mb 53f 42f
11:42 3 5 mph 1007.5mb 53f 42f
11:36 2 5 mph 1007.5mb 53f 43f
11:30 3 5 mph 1007.4mb 53f 43f
11:24 5 8 mph 1007.6mb 53f 43f
11:18 5 7 mph 1007.6mb 53f 43f
11:12 3 8 mph 1007.6mb 53f 43f
11:06 3 7 mph 1007.5mb 53f 44f
11:00 3 8 mph 1007.5mb 53f 44f
10:54 2 8 mph 1007.6mb 53f 44f
10:48 3 6 mph 1007.5mb 53f 44f
10:42 6 9 mph 1007.4mb 53f 44f
10:36 5 9 mph 1007.3mb 53f 44f
10:30 5 9 mph 1007.2mb 53f 44f
10:24 6 11 mph 1007.1mb 53f 44f
10:18 6 14 mph 1007mb 53f 44f
10:12 8 14 mph 1006.9mb 53f 45f
10:06 7 11 mph 1006.9mb 53f 45f
10:00 6 9 mph 1006.9mb 53f 45f
9:54 6 9 mph 1006.8mb 53f 45f
9:48 5 11 mph 1006.8mb 53f 45f
9:30 7 9 mph 1006.6mb 53f 46f
9:24 5 13 mph 1006.6mb 53f 46f
9:18 9 14 mph 1006.6mb 53f 46f
9:12 6 13 mph 1006.6mb 53f 46f
9:06 5 11 mph 1006.6mb 53f 46f
9:00 9 15 mph 1006.5mb 53f 46f
8:54 3 10 mph 1006.5mb 53f 46f
8:48 8 16 mph 1006.4mb 53f 47f
8:30 8 15 mph 1006mb 53f 47f
8:24 8 16 mph 1006mb 53f 47f
8:18 11 20 mph 1006mb 53f 47f
8:12 8 13 mph 1006mb 53f 48f
8:06 6 14 mph 1005.9mb 53f 48f
8:00 8 14 mph 1005.8mb 53f 48f
7:54 10 16 mph 1005.7mb 53f 48f
7:48 9 16 mph 1005.5mb 53f 48f
7:42 9 16 mph 1005.4mb 53f 48f
7:36 9 16 mph 1005.4mb 53f 48f
7:30 9 15 mph 1005.3mb 53f 48f
7:24 6 10 mph 1005.3mb 53f 49f
7:18 7 14 mph 1005.3mb 53f 49f
7:12 7 13 mph 1005.2mb 53f 49f
7:06 6 14 mph 1005.1mb 53f 49f
7:00 10 15 mph 1005mb 53f 49f
6:54 10 21 mph 1004.8mb 53f 49f
6:48 8 16 mph 1004.8mb 52f 49f
6:42 6 18 mph 1004.8mb 53f 49f
6:36 10 16 mph 1004.7mb 53f 49f
6:30 6 13 mph 1004.6mb 52f 49f
6:24 10 17 mph 1004.5mb 52f 49f
6:18 8 15 mph 1004.5mb 52f 49f
6:12 7 13 mph 1004.4mb 52f 49f
6:06 7 11 mph 1004.3mb 52f 49f
6:00 9 16 mph 1004.2mb 52f 50f
5:54 10 16 mph 1004.1mb 52f 50f
5:48 7 16 mph 1004.1mb 53f 50f
5:42 9 16 mph 1004.1mb 52f 50f
5:36 7 14 mph 1004.1mb 52f 50f
5:30 8 15 mph 1004.1mb 52f 50f
5:24 9 15 mph 1004mb 52f 50f
5:18 6 13 mph 1003.9mb 52f 50f
5:12 8 16 mph 1003.9mb 52f 50f
5:06 11 20 mph 1003.8mb 52f 50f
5:00 11 22 mph 1003.7mb 52f 51f
4:54 7 14 mph 1003.7mb 52f 51f
4:48 9 15 mph 1003.5mb 52f 51f
4:42 8 15 mph 1003.5mb 52f 51f
4:36 11 20 mph 1003.4mb 52f 51f
4:30 11 25 mph 1003.2mb 52f 51f
4:24 10 20 mph 1003mb 52f 51f
4:18 11 16 mph 1002.9mb 52f 52f
4:12 6 16 mph 1002.8mb 52f 52f
4:06 10 20 mph 1002.7mb 52f 52f
4:00 11 20 mph 1002.6mb 52f 52f
3:54 8 15 mph 1002.5mb 52f 53f
3:48 14 20 mph 1002.4mb 52f 53f
3:42 9 20 mph 1002.3mb 52f 54f
3:36 13 22 mph 1002.1mb 52f 54f
3:30 8 15 mph 1001.9mb 52f 55f
3:24 10 22 mph 1001.8mb 52f 55f
3:18 16 22 mph 1001.7mb 52f 55f
3:12 8 15 mph 1001.6mb 53f 55f
3:06 10 18 mph 1001.6mb 53f 55f
3:00 10 21 mph 1001.4mb 53f 55f
2:54 9 15 mph 1001.2mb 53f 55f
2:48 7 11 mph 1001.2mb 53f 56f
2:42 3 13 mph 1001.1mb 52f 56f
2:36 3 15 mph 1001mb 52f 56f
2:30 8 13 mph 1001mb 52f 56f
2:24 5 10 mph 1000.9mb 52f 57f
2:18 8 14 mph 1000.9mb 52f 57f
2:12 3 15 mph 1000.8mb 52f 58f
2:06 6 11 mph 1000.7mb 52f 57f
2:00 6 13 mph 1000.6mb 53f 57f
1:54 8 18 mph 1000.6mb 53f 57f
1:48 7 13 mph 1000.5mb 53f 57f
12:54 9 16 mph 1000.2mb 53f 58f
12:48 8 17 mph 1000.3mb 53f 58f
12:30 7 13 mph 1000.2mb 53f 56f
12:24 10 14 mph 1000.2mb 53f 56f
12:18 3 9 mph 1000.3mb 53f 56f
12:12 6 11 mph 1000.3mb 53f 56f
12:06 5 10 mph 1000.4mb 53f 56f
12:00 3 9 mph 1000.4mb 53f 57f
11:54 3 10 mph 1000.4mb 53f 57f
11:48 6 9 mph 1000.5mb 53f 58f
11:42 6 10 mph 1000.6mb 53f 57f
11:36 7 15 mph 1000.6mb 53f 57f
11:30 8 15 mph 1000.5mb 53f 57f
11:24 8 14 mph 1000.6mb 53f 57f
11:18 8 13 mph 1000.6mb 53f 58f
11:12 8 15 mph 1000.6mb 53f 58f
11:06 11 16 mph 1000.7mb 53f 57f
11:00 11 16 mph 1000.8mb 53f 57f
10:54 11 18 mph 1000.8mb 53f 57f
10:48 6 21 mph 1000.8mb 53f 57f
10:42 7 15 mph 1000.9mb 53f 56f
10:36 9 16 mph 1000.9mb 53f 57f
10:30 7 11 mph 1001mb 53f 57f
10:24 8 15 mph 1001.1mb 53f 57f
10:18 8 11 mph 1001.1mb 53f 56f
10:12 7 13 mph 1001.1mb 53f 57f
10:06 9 14 mph 1001.1mb 53f 56f
10:00 5 13 mph 1001.1mb 53f 56f
9:54 6 9 mph 1001mb 53f 56f
9:48 7 10 mph 1001mb 53f 56f
9:42 5 11 mph 1000.9mb 53f 55f
9:36 6 13 mph 1000.7mb 53f 55f
9:30 6 11 mph 1000.6mb 53f 55f
9:24 5 9 mph 1000.5mb 53f 54f
9:18 7 11 mph 1000.5mb 53f 54f
9:12 6 11 mph 1000.5mb 53f 54f
9:06 8 11 mph 1000.4mb 53f 53f
9:00 6 13 mph 1000.3mb 52f 53f
8:54 7 11 mph 1000.2mb 53f 53f
8:48 6 11 mph 1000.2mb 52f 53f
8:42 6 10 mph 1000mb 52f 52f
8:36 6 11 mph 1000mb 53f 52f
8:30 6 10 mph 1000.1mb 53f 52f
8:24 6 14 mph 999.9mb 53f 52f
8:18 6 10 mph 999.7mb 52f 52f
8:12 7 11 mph 999.6mb 52f 52f
8:06 8 10 mph 999.6mb 53f 52f
8:00 7 10 mph 999.5mb 53f 51f
7:54 6 9 mph 999.4mb 53f 51f
7:48 5 8 mph 999.2mb 53f 51f
7:42 6 9 mph 999mb 53f 51f
7:36 3 6 mph 998.8mb 53f 51f
7:30 2 6 mph 998.7mb 53f 51f
7:24 5 8 mph 998.8mb 53f 51f
7:18 2 5 mph 998.4mb 53f 50f
7:12 3 5 mph 998.1mb 53f 51f
7:06 2 5 mph 998.2mb 53f 51f
7:00 2 7 mph 998.4mb 53f 51f
6:54 6 8 mph 998.1mb 53f 51f
6:48 6 10 mph 998.2mb 53f 52f
6:42 5 10 mph 998.2mb 53f 52f
6:36 8 11 mph 998.1mb 53f 53f
6:30 6 7 mph 998.1mb 53f 53f
6:24 5 8 mph 998.1mb 53f 53f
6:18 6 11 mph 997.9mb 53f 54f
6:12 5 10 mph 997.9mb 53f 54f
6:06 6 13 mph 998.3mb 53f 55f
6:00 6 18 mph 998.7mb 53f 55f
5:54 13 23 mph 998mb 53f 57f
5:48 10 16 mph 997.4mb 53f 59f
5:42 8 16 mph 997.1mb 53f 60f
5:36 9 17 mph 997.1mb 53f 60f
5:30 9 15 mph 997.2mb 53f 60f
5:24 7 15 mph 997.1mb 52f 60f
5:18 9 15 mph 996.9mb 53f 59f
5:12 8 15 mph 996.8mb 53f 59f
5:06 7 9 mph 996.6mb 53f 59f
5:00 7 10 mph 996.8mb 53f 59f
4:54 6 8 mph 996.6mb 53f 58f
4:48 5 10 mph 996.7mb 53f 58f
4:42 7 13 mph 996.6mb 53f 59f
4:36 10 14 mph 996.5mb 53f 58f
4:30 10 16 mph 996.4mb 53f 59f
4:24 11 15 mph 996.5mb 53f 59f
4:18 13 18 mph 996.5mb 53f 59f
4:12 14 20 mph 996.7mb 53f 59f
4:06 11 17 mph 996.8mb 53f 60f
4:00 14 23 mph 996.8mb 53f 60f
3:54 13 20 mph 996.6mb 53f 60f
3:48 14 20 mph 996.5mb 52f 60f
3:42 13 17 mph 996.5mb 52f 60f
3:36 11 16 mph 996.5mb 52f 59f
3:30 11 15 mph 996.8mb 53f 59f
3:24 8 13 mph 996.9mb 53f 59f
3:18 6 8 mph 997.3mb 53f 57f
3:12 6 9 mph 997.5mb 53f 56f
3:06 8 11 mph 997.5mb 53f 56f
3:00  -  3 mph 997.5mb 53f 53f
2:54 1 5 mph 997.7mb 53f 53f
2:48 1 3 mph 997.8mb 53f 53f
2:42 2 3 mph 997.9mb 53f 53f
2:36 3 5 mph 997.9mb 53f 53f
2:30 2 3 mph 998.2mb 53f 53f
2:24 2 3 mph 998.2mb 53f 53f
2:18 3 5 mph 998.3mb 53f 52f
2:12 3 6 mph 998.4mb 53f 52f
2:06 2 3 mph 998.7mb 53f 52f
2:00 2 5 mph 999.1mb 53f 52f
1:54 2 8 mph 999.6mb 53f 52f
1:48 5 8 mph 999.7mb 53f 52f
1:42 6 10 mph 1000mb 53f 52f
1:36 3 6 mph 1000.2mb 53f 52f
1:30 2 7 mph 1000.5mb 53f 51f
1:24 7 10 mph 1000.5mb 53f 51f
1:18 5 7 mph 1000.7mb 53f 51f
1:12 2 3 mph 1000.9mb 53f 51f
1:06 2 9 mph 1000.8mb 53f 51f
1:00 6 10 mph 1000.8mb 53f 51f
12:54 9 15 mph 1001mb 53f 51f
12:48 10 14 mph 1001.4mb 53f -
12:42 5 8 mph 1001.6mb 53f -
12:36 6 10 mph 1002.1mb 53f -
12:30 7 10 mph 1002.3mb 53f 51f
12:24 5 15 mph 1002.3mb 53f 51f
12:18 13 21 mph 1002.4mb 53f 51f
12:12 10 15 mph 1002.4mb 53f 50f
12:06 8 20 mph 1003mb 53f 50f
12:00 8 13 mph 1003.1mb 53f 50f
Mi 11/30 11:54 11 15 mph 1003.2mb 53f 50f
11:48 10 18 mph 1003.3mb 53f 50f
11:42 10 17 mph 1003.3mb 53f 50f
11:36 7 11 mph 1003.7mb 53f 50f
11:30 7 9 mph 1004mb 53f 50f
11:24 8 15 mph 1004.1mb 53f 50f
11:18 9 16 mph 1004.4mb 53f 50f
11:12 10 15 mph 1004.6mb 53f 50f
11:06 9 16 mph 1004.8mb 53f 50f
11:00 9 15 mph 1005.1mb 53f 50f
10:54 8 15 mph 1005.4mb 53f 50f
10:48 6 24 mph 1005.4mb 53f 50f
10:42 9 20 mph 1005.5mb 53f 50f
10:36 11 18 mph 1005.6mb 53f 50f
10:30 9 15 mph 1005.9mb 53f 50f
10:24 10 16 mph 1005.8mb 53f 50f
10:18 10 16 mph 1006.1mb 53f 50f
10:12 15 26 mph 1006.2mb 53f 50f
10:06 11 18 mph 1006.5mb 53f 50f
10:00 10 18 mph 1006.7mb 53f 50f
9:54 11 25 mph 1006.9mb 53f 49f
9:48 15 23 mph 1007mb 53f 50f
9:42 11 21 mph 1007.3mb 53f 49f
9:36 10 17 mph 1007.6mb 53f 49f
9:30 10 20 mph 1007.8mb 53f 49f
9:24 9 17 mph 1008.1mb 53f 49f
9:18 10 16 mph 1008.2mb 52f 49f
9:12 9 16 mph 1008.4mb 53f 49f
9:06 11 17 mph 1008.6mb 53f 50f
9:00 7 11 mph 1009mb 52f 49f
8:54 8 16 mph 1009.2mb 52f 49f
8:48 8 15 mph 1009.1mb 53f 49f
8:42 9 16 mph 1009.2mb 53f 49f
8:36 9 14 mph 1008.9mb 53f 49f
8:30 10 16 mph 1009.2mb 53f 49f
8:24 8 13 mph 1009.5mb 53f 49f
8:18 10 14 mph 1009.6mb 53f 49f
8:12 9 14 mph 1009.7mb 52f 49f
8:06 8 17 mph 1009.9mb 52f 49f
8:00 6 13 mph 1009.8mb 53f 49f
7:54 7 17 mph 1010mb 53f 49f
7:48 7 15 mph 1010.3mb 53f 49f
7:42 7 11 mph 1010.4mb 53f 49f
7:36 6 14 mph 1010.5mb 53f 49f
7:30 9 14 mph 1010.7mb 53f 49f
7:24 7 14 mph 1010.7mb 53f 50f
7:18 9 13 mph 1010.7mb 53f 49f
7:12 6 14 mph 1010.7mb 53f 49f
7:06 8 13 mph 1010.5mb 52f 50f
7:00 8 13 mph 1011mb 52f 50f
6:54 8 15 mph 1011mb 52f 50f
6:48 7 15 mph 1010.8mb 52f 50f
6:42 10 17 mph 1010.7mb 53f 50f
6:36 13 15 mph 1010.7mb 53f 50f
6:00 10 17 mph 1010.7mb 53f 51f
5:54 11 17 mph 1010.8mb 53f 51f
5:48 8 14 mph 1011mb 53f 51f
5:42 11 15 mph 1011.1mb 53f 51f
5:36 8 11 mph 1011.3mb 52f 51f
5:30 8 16 mph 1011.4mb 52f 51f
5:24 10 16 mph 1011.2mb 52f 52f
5:18 8 13 mph 1011.4mb 52f 52f
5:12 8 16 mph 1011.5mb 52f 52f
5:06 10 16 mph 1011.4mb 52f 52f
5:00 13 15 mph 1011.6mb 52f 53f
4:54 14 18 mph 1012.2mb 52f 53f
4:48 10 16 mph 1011.9mb 52f 53f
4:42 10 15 mph 1011.9mb 52f 53f
4:36 10 16 mph 1011.7mb 52f 53f
4:30 9 14 mph 1011.6mb 52f 53f
4:24 9 14 mph 1011.8mb 52f 53f
4:18 8 14 mph 1011.8mb 52f 54f
4:12 10 15 mph 1011.9mb 52f 54f
4:06 8 15 mph 1012.1mb 52f 54f
4:00 10 14 mph 1012.2mb 52f 54f
3:54 8 13 mph 1012.4mb 52f 54f
3:48 3 9 mph 1012.2mb 52f 54f
3:42 6 10 mph 1012.1mb 52f 54f
3:36 8 13 mph 1011.8mb 52f 54f
3:30 7 8 mph 1012mb 52f 54f
3:24 5 7 mph 1012.3mb 52f 54f
3:18 6 9 mph 1012.2mb 52f 54f
3:12 8 10 mph 1012mb 52f 55f
3:06 8 11 mph 1012mb 52f 55f
3:00 7 10 mph 1012.2mb 52f 55f
2:54 6 9 mph 1012.1mb 52f 55f
2:48 7 10 mph 1011.9mb 52f 55f
2:42 7 11 mph 1011.8mb 52f 55f
2:36 7 13 mph 1011.7mb 52f 55f
2:30 7 9 mph 1011.9mb 52f 56f
2:24 5 9 mph 1011.7mb 52f 55f
2:18 3 9 mph 1011.5mb 52f 55f
2:12 7 10 mph 1011.3mb 52f 55f
2:06 6 8 mph 1011.6mb 52f 56f
2:00 6 8 mph 1011.9mb 53f 56f
1:54 6 8 mph 1012.1mb 53f 56f
1:48 3 6 mph 1012.2mb 52f 56f
1:42 3 6 mph 1012mb 52f 56f
1:36 3 6 mph 1012.1mb 52f 56f
1:30 5 6 mph 1012.3mb 52f 56f
1:24 3 5 mph 1012.6mb 52f 56f
1:18  -  2 mph 1013mb 52f 56f
1:12 2 3 mph 1012.9mb 52f 56f
1:06 3 5 mph 1012.8mb 52f 56f
1:00 2 5 mph 1012.8mb 52f 56f
12:54 3 5 mph 1013mb 52f 56f
12:48 2 5 mph 1013.1mb 52f 56f
12:42 2 6 mph 1012.9mb 52f 56f
12:36 3 6 mph 1012.8mb 52f 56f
12:30 3 6 mph 1012.8mb 52f 56f
12:24 5 8 mph 1012.3mb 52f 56f
12:18 3 5 mph 1012.6mb 52f 56f
12:12 2 5 mph 1013.2mb 52f 56f
12:06  -  5 mph 1013.2mb 52f 56f
12:00 2 6 mph 1012.7mb 52f 56f
11:54 5 6 mph 1012.4mb 52f 56f
11:48 3 6 mph 1012.6mb 52f 56f
11:42 3 5 mph 1012.7mb 52f 56f
11:36 3 6 mph 1012.4mb 52f 56f
11:30 2 6 mph 1012.8mb 53f 55f
11:24 1 6 mph 1012.9mb 53f 55f
11:18 3 6 mph 1012.9mb 53f 55f
11:12 2 3 mph 1013mb 53f 55f
11:06 2 5 mph 1013.2mb 53f 54f
11:00 3 5 mph 1013.5mb 53f 54f
10:54 2 5 mph 1013.5mb 53f 54f
10:48 6
mph
1014mb 53f 54f
10:42 2 3 mph 1014.1mb 53f 54f
10:36  -  2 mph 1014.5mb 53f 54f
10:30 3
mph
1014.8mb 53f 54f
10:24 1 3 mph 1014.5mb 53f 53f
10:18  -  2 mph 1014.3mb 53f 53f
10:12 3
mph
1014.5mb 53f 53f
10:06  -  6 mph 1015.1mb 53f 53f
10:00 3
mph
1014.7mb 53f 53f
9:54 1 2 mph 1015.2mb 53f 53f
9:48 2 5 mph 1015.3mb 53f 53f
9:42 5
mph
1015.4mb 53f 53f
9:36 3
mph
1015.1mb 53f 53f
9:30  -  2 mph 1014.5mb 53f 52f
9:24  -  1 mph 1014.6mb 53f 52f
9:18  -  2 mph 1014.9mb 53f 52f
9:12 2 3 mph 1014.6mb 53f 52f
9:06 1 2 mph 1014.7mb 53f 52f
9:00  -  1 mph 1014.7mb 53f 52f
8:54  -  5 mph 1014.5mb 53f 52f
8:48 5
mph
1014.6mb 53f 52f
8:42 2 3 mph 1014.4mb 53f 52f
8:36 2 3 mph 1014.4mb 53f 52f
8:30 2 3 mph 1014.4mb 53f 51f